カタログに戻る

CZ-6A DEB

運用中PO
NORAD 60672·DEBRIS·🇨🇳 China

打ち上げ Aug 6, 2024 から Taiyuan Satellite Launch Center

Loading…

次のパス (今後24時間)

TLE

最新Source: Space-Track

元期: Sep 14, 2026, 09:20 UTC

1 60672U 24140BZ  26257.38901167  .00002784  00000-0  29754-3 0  9990
2 60672  88.7409 230.6706 0139728 200.4271 159.1334 14.81456595112984

AllMySatでCZ-6A DEBをリアルタイム追跡

Download on the App Store